weather.gov     
National Weather Service

Regional Weather Roundup
NWS Homepage
This page is being discontinued on March 12, 2014.
The same data is available at this site. Please update your bookmarks.
Thank you, and we apologize for the inconvenience.
Please send an email to SR-SRH.Webmaster@noaa.gov with any concerns.


Current Version
Previous Version:    01  02  03  04  05  06  07  08  09  10  11  12  13  14  15  16  17  18  19  20  21  22  23  24  25  26  
[Printable]
318
ASUS41 KALY 240810
RWRALY

NEW YORK STATE HOURLY WEATHER ROUNDUP
NATIONAL WEATHER SERVICE ALBANY NY
300 AM EST MON NOV 24 2014

NOTE: "FAIR" INDICATES FEW OR NO CLOUDS BELOW 12,000 FEET WITH NO
SIGNIFICANT WEATHER AND/OR NO OBSTRUCTIONS TO VISIBILITY.

NYZ032-033-038>043-046>054-057>066-NYZ062>081-240900-
EAST


CITY           SKY/WX    TMP DP  RH WIND       PRES   REMARKS
ALBANY         LGT RAIN  50  41  71 S10       29.85F
GLENS FALLS    LGT RAIN  38  35  89 CALM      29.86F
POUGHKEEPSIE   LGT RAIN  47  44  90 CALM      29.85F FOG
MONTGOMERY     RAIN      41  39  93 NE8       29.82F FOG
WHITE PLAINS   HVY RAIN  51  50  96 E10       29.85F VSB 1
ISLIP          LGT RAIN  57  54  89 SE14      29.89F FOG
NEW YORK CITY  RAIN      57  56  96 SE16G22   29.84F FOG
CENTRAL PARK   RAIN      57  55  93 VRB7      29.86F FOG
$$

NYZ005>009-017-018-044>046-055-056-240900-
CENTRAL


CITY           SKY/WX    TMP DP  RH WIND       PRES   REMARKS
FULTON         RAIN      50  45  83 SE13G22   29.57F
SYRACUSE       LGT RAIN  52  47  83 E23G31    29.59F
ROME           LGT RAIN  47  41  80 SE13      29.72F
ELMIRA         RAIN      51  48  89 SE15G26   29.54F FOG
BINGHAMTON     LGT RAIN  47  46  97 SE23G31   29.62F
MONTICELLO     CLOUDY    43  41  93 E10       29.79F
$$

NYZ026>034-041>043-240900-
NORTH


CITY           SKY/WX    TMP DP  RH WIND       PRES   REMARKS
WATERTOWN      LGT RAIN  54  44  69 SE18G29   29.57F
FORT DRUM      NOT AVBL
MASSENA        CLOUDY    47  39  74 E7        29.69F
SARANAC LAKE   CLOUDY    47  39  74 S7        29.72F
PLATTSBURGH    CLOUDY    47  36  65 SE12      29.80F
$$

NYZ001>004-010>016-019>021-240900-
WEST


CITY           SKY/WX    TMP DP  RH WIND       PRES   REMARKS
BUFFALO        LGT RAIN  51  46  83 SE18      29.36F
DUNKIRK        CLOUDY    55  48  77 S23G38    29.34F
JAMESTOWN      CLOUDY    48  46  93 S21G31    29.37F
WELLSVILLE     LGT RAIN  50  46  86 S14G36    29.50F
ROCHESTER      LGT RAIN  55  48  77 S17G23    29.43F
PENN YAN       LGT RAIN  50  46  86 S15G24    29.52F
$$

             KEY
       WCI = WIND CHILL INDEX
       VSB = VISIBILITY
       HX  = HEAT INDEX
$$




U.S. Dept. of Commerce
NOAA National Weather Service
1325 East West Highway
Silver Spring, MD 20910
E-mail: w-nws.webmaster@noaa.gov
Page last modified: May 16, 2007
NATIONAL WEATHER SERVICE: for Safety, for Work, for Fun - FOR LIFE